Location: Trebic
(49.2170°N, 15.8830°E)
Time: 03:34:37
(UTC+02:00)

Transit 4A - Pass Details

Date: 26 August 2019
Orbit: 865 x 980 km, 66.8° (Epoch: 19 September)

Event Time Altitude Azimuth Distance (km) Brightness Sun altitude
Rises 18:43:38 0° 218° (SW) 3,666 11.5 10.2°
Reaches altitude 10° 18:46:11 10° 220° (SW) 2,725 10.9 9.8°
Maximum altitude 18:52:36 79° 306° (NW) 1,001 8.4 8.7°
Drops below altitude 10° 18:59:00 10° 34° (NE) 2,717 10.1 7.7°
Sets 19:01:33 0° 36° (NE) 3,655 10.7 7.3°
